Location: Koussan�
(15.2012°N, 12.5548°W)
Time: 12:09:39
(UTC+00:00)

Cosmos 2369 - Pass Details

Date: 20 October 2020
Orbit: 840 x 854 km, 71.0° (Epoch: 26 November)

Event Time Altitude Azimuth Distance (km) Brightness Sun altitude
Rises 20:16:04 0° 192° (SSW) 3,411 7.1 -27.0°
Reaches altitude 10° 20:18:31 10° 191° (S) 2,476 6.3 -27.6°
Enters shadow 20:22:37 49° 178° (S) 1,090 4.2 -28.6°
